User: anonymous   Login
Location: Unspecified
(0.0000°N, 0.0000°E)
Time: 15:24:57
(UTC+00:00)
Language:

Gonets-D1 - Orbit

View from above orbital plane
View from above orbital plane
View from above satellite
View from above satellite

Ground track
Ground track

The orbit data is extracted from the following two-line orbital elements,

1 24727U 97006C   18267.95037147 +.00000003 +00000-0 -41205-4 0  9994
2 24727 082.6012 249.9280 0001494 061.1855 326.7898 12.62321477995530
Epoch (UTC): 24 September 2018 22:48:32
Eccentricity: 0.0001494
inclination: 82.6012°
perigee height: 1412 km
apogee height: 1414 km
right ascension of ascending node: 249.9280°
argument of perigee: 61.1855°
revolutions per day: 12.62321477
mean anomaly at epoch: 326.7898°
orbit number at epoch: 99553

The dashed part of the orbit path shows where the satellite is in the earth's shadow,  

DLR